Time,TemperatureF,DewpointF,PressureIn,WindDirection,WindDirectionDegrees,WindSpeedMPH,WindSpeedGustMPH,Humidity,HourlyPrecipIn,Conditions,Clouds,dailyrainin,SoftwareType,DateUTC
2013-01-02 00:03:00,24.0,-99.9,-100.00,West,276,12.0,20.0,-999,-99.99,,,-99.99,,2013-01-02 05:03:00,
2013-01-02 00:12:00,24.0,-99.9,-100.00,West,276,12.0,20.0,-999,-99.99,,,-99.99,,2013-01-02 05:12:00,
2013-01-02 00:23:00,24.0,-99.9,-100.00,West,271,11.0,18.0,-999,-99.99,,,-99.99,,2013-01-02 05:23:00,
2013-01-02 00:33:00,24.0,-99.9,-100.00,West,271,11.0,18.0,-999,-99.99,,,-99.99,,2013-01-02 05:33:00,
2013-01-02 00:43:00,24.0,-99.9,-100.00,WNW,283,13.0,19.0,-999,-99.99,,,-99.99,,2013-01-02 05:43:00,
2013-01-02 00:53:00,24.0,-99.9,-100.00,WNW,283,13.0,19.0,-999,-99.99,,,-99.99,,2013-01-02 05:53:00,
2013-01-02 01:00:00,24.0,-99.9,-100.00,West,274,14.0,17.0,-999,-99.99,,,-99.99,,2013-01-02 06:00:00,
2013-01-02 01:02:00,24.0,-99.9,-100.00,WNW,283,13.0,19.0,-999,-99.99,,,-99.99,,2013-01-02 06:02:00,
2013-01-02 01:12:00,24.0,-99.9,-100.00,WSW,254,13.0,19.0,-999,-99.99,,,-99.99,,2013-01-02 06:12:00,
2013-01-02 01:22:00,24.0,-99.9,-100.00,West,274,14.0,17.0,-999,-99.99,,,-99.99,,2013-01-02 06:22:00,
2013-01-02 01:33:00,24.0,-99.9,-100.00,West,274,14.0,17.0,-999,-99.99,,,-99.99,,2013-01-02 06:33:00,
2013-01-02 01:43:00,24.0,-99.9,-100.00,West,274,14.0,17.0,-999,-99.99,,,-99.99,,2013-01-02 06:43:00,
2013-01-02 01:53:00,24.0,-99.9,-100.00,West,274,14.0,17.0,-999,-99.99,,,-99.99,,2013-01-02 06:53:00,
2013-01-02 02:22:00,24.0,-99.9,-100.00,West,262,13.0,18.0,-999,-99.99,,,-99.99,,2013-01-02 07:22:00,
2013-01-02 02:32:00,24.0,-99.9,-100.00,West,262,13.0,18.0,-999,-99.99,,,-99.99,,2013-01-02 07:32:00,
2013-01-02 02:42:00,24.0,-99.9,-100.00,West,271,13.0,19.0,-999,-99.99,,,-99.99,,2013-01-02 07:42:00,
2013-01-02 02:52:00,24.0,-99.9,-100.00,West,271,13.0,19.0,-999,-99.99,,,-99.99,,2013-01-02 07:52:00,
2013-01-02 03:02:00,24.0,-99.9,-100.00,West,271,13.0,19.0,-999,-99.99,,,-99.99,,2013-01-02 08:02:00,
2013-01-02 03:12:00,24.0,-99.9,-100.00,WSW,255,10.0,18.0,-999,-99.99,,,-99.99,,2013-01-02 08:12:00,
2013-01-02 03:22:00,24.0,-99.9,-100.00,West,273,10.0,16.0,-999,-99.99,,,-99.99,,2013-01-02 08:22:00,
2013-01-02 03:32:00,24.0,-99.9,-100.00,West,273,10.0,16.0,-999,-99.99,,,-99.99,,2013-01-02 08:32:00,
2013-01-02 03:42:00,24.0,-99.9,-100.00,West,273,10.0,16.0,-999,-99.99,,,-99.99,,2013-01-02 08:42:00,
2013-01-02 03:53:00,24.0,-99.9,-100.00,WSW,255,10.0,18.0,-999,-99.99,,,-99.99,,2013-01-02 08:53:00,
2013-01-02 04:02:00,24.0,-99.9,-100.00,WSW,255,10.0,18.0,-999,-99.99,,,-99.99,,2013-01-02 09:02:00,
2013-01-02 04:12:00,24.0,-99.9,-100.00,WSW,255,10.0,18.0,-999,-99.99,,,-99.99,,2013-01-02 09:12:00,
2013-01-02 04:22:00,25.0,-99.9,-100.00,WSW,253,8.0,14.0,-999,-99.99,,,-99.99,,2013-01-02 09:22:00,
2013-01-02 04:32:00,25.0,-99.9,-100.00,WSW,253,8.0,14.0,-999,-99.99,,,-99.99,,2013-01-02 09:32:00,
2013-01-02 04:43:00,25.0,-99.9,-100.00,WSW,253,8.0,14.0,-999,-99.99,,,-99.99,,2013-01-02 09:43:00,
2013-01-02 04:53:00,24.0,-99.9,-100.00,WSW,253,13.0,16.0,-999,-99.99,,,-99.99,,2013-01-02 09:53:00,
2013-01-02 05:02:00,24.0,-99.9,-100.00,WSW,253,13.0,16.0,-999,-99.99,,,-99.99,,2013-01-02 10:02:00,
2013-01-02 05:12:00,24.0,-99.9,-100.00,WSW,253,13.0,16.0,-999,-99.99,,,-99.99,,2013-01-02 10:12:00,
2013-01-02 05:22:00,24.0,-99.9,-100.00,West,274,9.0,19.0,-999,-99.99,,,-99.99,,2013-01-02 10:22:00,
2013-01-02 05:33:00,24.0,-99.9,-100.00,West,274,9.0,19.0,-999,-99.99,,,-99.99,,2013-01-02 10:33:00,
2013-01-02 05:43:00,25.0,-99.9,-100.00,WSW,255,16.0,21.0,-999,-99.99,,,-99.99,,2013-01-02 10:43:00,
2013-01-02 05:53:00,25.0,-99.9,-100.00,WSW,255,16.0,21.0,-999,-99.99,,,-99.99,,2013-01-02 10:53:00,
2013-01-02 06:02:00,25.0,-99.9,-100.00,WSW,255,16.0,21.0,-999,-99.99,,,-99.99,,2013-01-02 11:02:00,
2013-01-02 06:12:00,25.0,-99.9,-100.00,West,263,11.0,23.0,-999,-99.99,,,-99.99,,2013-01-02 11:12:00,
2013-01-02 06:22:00,25.0,-99.9,-100.00,West,260,14.0,18.0,-999,-99.99,,,-99.99,,2013-01-02 11:22:00,
2013-01-02 06:33:00,25.0,-99.9,-100.00,West,260,14.0,18.0,-999,-99.99,,,-99.99,,2013-01-02 11:33:00,
2013-01-02 06:43:00,25.0,-99.9,-100.00,West,260,14.0,18.0,-999,-99.99,,,-99.99,,2013-01-02 11:43:00,
2013-01-02 06:53:00,25.0,-99.9,-100.00,West,263,11.0,23.0,-999,-99.99,,,-99.99,,2013-01-02 11:53:00,
2013-01-02 07:03:00,26.0,-99.9,-100.00,WNW,288,8.0,23.0,-999,-99.99,,,-99.99,,2013-01-02 12:03:00,
2013-01-02 07:12:00,26.0,-99.9,-100.00,WNW,288,8.0,23.0,-999,-99.99,,,-99.99,,2013-01-02 12:12:00,
2013-01-02 07:22:00,26.0,-99.9,-100.00,WNW,283,9.0,16.0,-999,-99.99,,,-99.99,,2013-01-02 12:22:00,
2013-01-02 07:33:00,26.0,-99.9,-100.00,WNW,283,9.0,16.0,-999,-99.99,,,-99.99,,2013-01-02 12:33:00,
2013-01-02 07:43:00,26.0,-99.9,-100.00,WNW,288,8.0,23.0,-999,-99.99,,,-99.99,,2013-01-02 12:43:00,
2013-01-02 07:53:00,26.0,-99.9,-100.00,WNW,288,8.0,23.0,-999,-99.99,,,-99.99,,2013-01-02 12:53:00,
2013-01-02 08:03:00,26.0,-99.9,-100.00,WNW,288,8.0,23.0,-999,-99.99,,,-99.99,,2013-01-02 13:03:00,
2013-01-02 08:13:00,27.0,-99.9,-100.00,West,264,12.0,17.0,-999,-99.99,,,-99.99,,2013-01-02 13:13:00,
2013-01-02 08:22:00,26.0,-99.9,-100.00,West,262,10.0,16.0,-999,-99.99,,,-99.99,,2013-01-02 13:22:00,
2013-01-02 08:33:00,26.0,-99.9,-100.00,West,262,10.0,16.0,-999,-99.99,,,-99.99,,2013-01-02 13:33:00,
2013-01-02 08:43:00,26.0,-99.9,-100.00,West,262,10.0,16.0,-999,-99.99,,,-99.99,,2013-01-02 13:43:00,
2013-01-02 08:53:00,27.0,-99.9,-100.00,West,264,12.0,17.0,-999,-99.99,,,-99.99,,2013-01-02 13:53:00,
2013-01-02 09:03:00,27.0,-99.9,-100.00,West,264,12.0,17.0,-999,-99.99,,,-99.99,,2013-01-02 14:03:00,
2013-01-02 09:13:00,27.0,-99.9,-100.00,WSW,256,11.0,17.0,-999,-99.99,,,-99.99,,2013-01-02 14:13:00,
2013-01-02 09:23:00,27.0,-99.9,-100.00,WSW,258,12.0,16.0,-999,-99.99,,,-99.99,,2013-01-02 14:23:00,
2013-01-02 09:33:00,27.0,-99.9,-100.00,WSW,256,11.0,17.0,-999,-99.99,,,-99.99,,2013-01-02 14:33:00,
2013-01-02 09:43:00,27.0,-99.9,-100.00,WSW,256,11.0,17.0,-999,-99.99,,,-99.99,,2013-01-02 14:43:00,
2013-01-02 09:53:00,27.0,-99.9,-100.00,WSW,256,11.0,17.0,-999,-99.99,,,-99.99,,2013-01-02 14:53:00,
2013-01-02 10:03:00,27.0,-99.9,-100.00,WSW,256,11.0,17.0,-999,-99.99,,,-99.99,,2013-01-02 15:03:00,
2013-01-02 10:13:00,27.0,-99.9,-100.00,WSW,256,11.0,17.0,-999,-99.99,,,-99.99,,2013-01-02 15:13:00,
2013-01-02 10:23:00,27.0,-99.9,-100.00,WSW,237,13.0,15.0,-999,-99.99,,,-99.99,,2013-01-02 15:23:00,
2013-01-02 10:33:00,27.0,-99.9,-100.00,WSW,237,13.0,15.0,-999,-99.99,,,-99.99,,2013-01-02 15:33:00,
2013-01-02 10:43:00,27.0,-99.9,-100.00,WSW,240,13.0,19.0,-999,-99.99,,,-99.99,,2013-01-02 15:43:00,
2013-01-02 10:53:00,27.0,-99.9,-100.00,WSW,240,13.0,19.0,-999,-99.99,,,-99.99,,2013-01-02 15:53:00,
2013-01-02 11:03:00,27.0,-99.9,-100.00,WSW,240,13.0,19.0,-999,-99.99,,,-99.99,,2013-01-02 16:03:00,
2013-01-02 11:13:00,27.0,-99.9,-100.00,WSW,240,13.0,19.0,-999,-99.99,,,-99.99,,2013-01-02 16:13:00,
2013-01-02 11:22:00,27.0,-99.9,-100.00,SW,227,13.0,17.0,-999,-99.99,,,-99.99,,2013-01-02 16:22:00,
2013-01-02 11:33:00,27.0,-99.9,-100.00,SW,227,13.0,17.0,-999,-99.99,,,-99.99,,2013-01-02 16:33:00,
2013-01-02 11:43:00,27.0,-99.9,-100.00,SW,227,13.0,17.0,-999,-99.99,,,-99.99,,2013-01-02 16:43:00,
2013-01-02 11:54:00,27.0,-99.9,-100.00,WSW,242,13.0,17.0,-999,-99.99,,,-99.99,,2013-01-02 16:54:00,
2013-01-02 12:04:00,27.0,-99.9,-100.00,WSW,242,13.0,17.0,-999,-99.99,,,-99.99,,2013-01-02 17:04:00,
2013-01-02 12:13:00,27.0,-99.9,-100.00,WSW,242,13.0,17.0,-999,-99.99,,,-99.99,,2013-01-02 17:13:00,
2013-01-02 12:23:00,27.0,-99.9,-100.00,WSW,237,11.0,17.0,-999,-99.99,,,-99.99,,2013-01-02 17:23:00,
2013-01-02 12:33:00,27.0,-99.9,-100.00,WSW,237,11.0,17.0,-999,-99.99,,,-99.99,,2013-01-02 17:33:00,
2013-01-02 12:43:00,27.0,-99.9,-100.00,SW,230,11.0,19.0,-999,-99.99,,,-99.99,,2013-01-02 17:43:00,
2013-01-02 12:54:00,27.0,-99.9,-100.00,SW,230,11.0,19.0,-999,-99.99,,,-99.99,,2013-01-02 17:54:00,
2013-01-02 13:03:00,27.0,-99.9,-100.00,SW,230,11.0,19.0,-999,-99.99,,,-99.99,,2013-01-02 18:03:00,
2013-01-02 13:13:00,27.0,-99.9,-100.00,SSW,210,11.0,17.0,-999,-99.99,,,-99.99,,2013-01-02 18:13:00,
2013-01-02 13:23:00,27.0,-99.9,-100.00,SW,221,10.0,14.0,-999,-99.99,,,-99.99,,2013-01-02 18:23:00,
2013-01-02 13:33:00,27.0,-99.9,-100.00,SW,221,10.0,14.0,-999,-99.99,,,-99.99,,2013-01-02 18:33:00,
2013-01-02 13:43:00,27.0,-99.9,-100.00,SW,221,10.0,14.0,-999,-99.99,,,-99.99,,2013-01-02 18:43:00,
2013-01-02 13:54:00,27.0,-99.9,-100.00,SSW,210,11.0,17.0,-999,-99.99,,,-99.99,,2013-01-02 18:54:00,
2013-01-02 14:03:00,27.0,-99.9,-100.00,SSW,210,11.0,17.0,-999,-99.99,,,-99.99,,2013-01-02 19:03:00,
2013-01-02 14:13:00,27.0,-99.9,-100.00,SSW,210,11.0,17.0,-999,-99.99,,,-99.99,,2013-01-02 19:13:00,
2013-01-02 14:23:00,26.0,-99.9,-100.00,South,188,13.0,16.0,-999,-99.99,,,-99.99,,2013-01-02 19:23:00,
2013-01-02 14:33:00,26.0,-99.9,-100.00,South,188,13.0,16.0,-999,-99.99,,,-99.99,,2013-01-02 19:33:00,
2013-01-02 14:43:00,26.0,-99.9,-100.00,South,188,13.0,16.0,-999,-99.99,,,-99.99,,2013-01-02 19:43:00,
2013-01-02 14:53:00,26.0,-99.9,-100.00,SSW,192,13.0,18.0,-999,-99.99,,,-99.99,,2013-01-02 19:53:00,
2013-01-02 15:03:00,26.0,-99.9,-100.00,SSW,192,13.0,18.0,-999,-99.99,,,-99.99,,2013-01-02 20:03:00,
2013-01-02 15:12:00,26.0,-99.9,-100.00,SSW,192,13.0,18.0,-999,-99.99,,,-99.99,,2013-01-02 20:12:00,
2013-01-02 15:23:00,27.0,-99.9,-100.00,South,187,9.0,12.0,-999,-99.99,,,-99.99,,2013-01-02 20:23:00,
2013-01-02 15:33:00,27.0,-99.9,-100.00,SSW,195,9.0,16.0,-999,-99.99,,,-99.99,,2013-01-02 20:33:00,
2013-01-02 15:43:00,27.0,-99.9,-100.00,SSW,195,9.0,16.0,-999,-99.99,,,-99.99,,2013-01-02 20:43:00,
2013-01-02 15:53:00,27.0,-99.9,-100.00,SSW,195,9.0,16.0,-999,-99.99,,,-99.99,,2013-01-02 20:53:00,
2013-01-02 16:03:00,27.0,-99.9,-100.00,SSW,195,9.0,16.0,-999,-99.99,,,-99.99,,2013-01-02 21:03:00,
2013-01-02 16:13:00,27.0,-99.9,-100.00,SSW,195,9.0,16.0,-999,-99.99,,,-99.99,,2013-01-02 21:13:00,
2013-01-02 16:23:00,27.0,-99.9,-100.00,SSE,148,4.0,12.0,-999,-99.99,,,-99.99,,2013-01-02 21:23:00,
2013-01-02 16:33:00,27.0,-99.9,-100.00,SSE,148,4.0,12.0,-999,-99.99,,,-99.99,,2013-01-02 21:33:00,
2013-01-02 16:43:00,27.0,-99.9,-100.00,South,176,7.0,14.0,-999,-99.99,,,-99.99,,2013-01-02 21:43:00,
2013-01-02 16:53:00,27.0,-99.9,-100.00,South,176,7.0,14.0,-999,-99.99,,,-99.99,,2013-01-02 21:53:00,
2013-01-02 17:03:00,27.0,-99.9,-100.00,South,176,7.0,14.0,-999,-99.99,,,-99.99,,2013-01-02 22:03:00,
2013-01-02 17:13:00,27.0,-99.9,-100.00,South,176,7.0,14.0,-999,-99.99,,,-99.99,,2013-01-02 22:13:00,
2013-01-02 17:22:00,24.0,-99.9,-100.00,SSE,150,4.0,10.0,-999,-99.99,,,-99.99,,2013-01-02 22:22:00,
2013-01-02 17:33:00,24.0,-99.9,-100.00,SSE,150,4.0,10.0,-999,-99.99,,,-99.99,,2013-01-02 22:33:00,
2013-01-02 17:43:00,25.0,-99.9,-100.00,SSE,159,6.0,12.0,-999,-99.99,,,-99.99,,2013-01-02 22:43:00,
2013-01-02 17:53:00,25.0,-99.9,-100.00,SSE,159,6.0,12.0,-999,-99.99,,,-99.99,,2013-01-02 22:53:00,
2013-01-02 18:03:00,25.0,-99.9,-100.00,SSE,159,6.0,12.0,-999,-99.99,,,-99.99,,2013-01-02 23:03:00,
2013-01-02 18:13:00,23.0,-99.9,-100.00,SSE,164,5.0,14.0,-999,-99.99,,,-99.99,,2013-01-02 23:13:00,
2013-01-02 18:23:00,22.0,-99.9,-100.00,SSE,153,6.0,10.0,-999,-99.99,,,-99.99,,2013-01-02 23:23:00,
2013-01-02 18:33:00,22.0,-99.9,-100.00,SSE,153,6.0,10.0,-999,-99.99,,,-99.99,,2013-01-02 23:33:00,
2013-01-02 18:43:00,22.0,-99.9,-100.00,SSE,153,6.0,10.0,-999,-99.99,,,-99.99,,2013-01-02 23:43:00,
2013-01-02 18:53:00,23.0,-99.9,-100.00,SSE,164,5.0,14.0,-999,-99.99,,,-99.99,,2013-01-02 23:53:00,
2013-01-02 19:03:00,23.0,-99.9,-100.00,SSE,164,5.0,14.0,-999,-99.99,,,-99.99,,2013-01-03 00:03:00,
2013-01-02 19:12:00,21.0,-99.9,-100.00,SSE,159,4.0,15.0,-999,-99.99,,,-99.99,,2013-01-03 00:12:00,
2013-01-02 19:23:00,21.0,-99.9,-100.00,SSE,162,8.0,13.0,-999,-99.99,,,-99.99,,2013-01-03 00:23:00,
2013-01-02 19:38:00,21.0,-99.9,-100.00,SSE,162,8.0,13.0,-999,-99.99,,,-99.99,,2013-01-03 00:38:00,
2013-01-02 19:53:00,21.0,-99.9,-100.00,SSE,159,4.0,15.0,-999,-99.99,,,-99.99,,2013-01-03 00:53:00,
2013-01-02 20:03:00,21.0,-99.9,-100.00,SSE,159,4.0,15.0,-999,-99.99,,,-99.99,,2013-01-03 01:03:00,
2013-01-02 20:12:00,20.0,-99.9,-100.00,SSE,162,6.0,16.0,-999,-99.99,,,-99.99,,2013-01-03 01:12:00,
2013-01-02 20:23:00,20.0,-99.9,-100.00,South,169,6.0,13.0,-999,-99.99,,,-99.99,,2013-01-03 01:23:00,
2013-01-02 20:33:00,20.0,-99.9,-100.00,South,169,6.0,13.0,-999,-99.99,,,-99.99,,2013-01-03 01:33:00,
2013-01-02 20:43:00,20.0,-99.9,-100.00,SSE,162,6.0,16.0,-999,-99.99,,,-99.99,,2013-01-03 01:43:00,
2013-01-02 20:53:00,20.0,-99.9,-100.00,SSE,162,6.0,16.0,-999,-99.99,,,-99.99,,2013-01-03 01:53:00,
2013-01-02 21:02:00,20.0,-99.9,-100.00,SSE,162,6.0,16.0,-999,-99.99,,,-99.99,,2013-01-03 02:02:00,
2013-01-02 21:12:00,20.0,-99.9,-100.00,SSE,162,6.0,16.0,-999,-99.99,,,-99.99,,2013-01-03 02:12:00,
2013-01-02 21:23:00,19.0,-99.9,-100.00,SE,145,6.0,11.0,-999,-99.99,,,-99.99,,2013-01-03 02:23:00,
2013-01-02 21:33:00,19.0,-99.9,-100.00,SE,145,6.0,11.0,-999,-99.99,,,-99.99,,2013-01-03 02:33:00,
2013-01-02 21:43:00,19.0,-99.9,-100.00,SE,145,6.0,11.0,-999,-99.99,,,-99.99,,2013-01-03 02:43:00,
2013-01-02 22:03:00,19.0,-99.9,-100.00,SSE,158,6.0,13.0,-999,-99.99,,,-99.99,,2013-01-03 03:03:00,
2013-01-02 22:12:00,19.0,-99.9,-100.00,SSE,158,6.0,13.0,-999,-99.99,,,-99.99,,2013-01-03 03:12:00,
2013-01-02 22:22:00,18.0,-99.9,-100.00,SE,143,5.0,10.0,-999,-99.99,,,-99.99,,2013-01-03 03:22:00,
2013-01-02 22:47:00,18.0,-99.9,-100.00,SE,138,6.0,11.0,-999,-99.99,,,-99.99,,2013-01-03 03:47:00,
2013-01-02 22:53:00,18.0,-99.9,-100.00,SE,138,6.0,11.0,-999,-99.99,,,-99.99,,2013-01-03 03:53:00,
2013-01-02 23:03:00,18.0,-99.9,-100.00,SE,138,6.0,11.0,-999,-99.99,,,-99.99,,2013-01-03 04:03:00,
2013-01-02 23:12:00,18.0,-99.9,-100.00,SE,138,6.0,11.0,-999,-99.99,,,-99.99,,2013-01-03 04:12:00,
2013-01-02 23:22:00,18.0,-99.9,-100.00,SE,141,6.0,11.0,-999,-99.99,,,-99.99,,2013-01-03 04:22:00,
2013-01-02 23:33:00,18.0,-99.9,-100.00,SE,141,6.0,11.0,-999,-99.99,,,-99.99,,2013-01-03 04:33:00,
2013-01-02 23:43:00,18.0,-99.9,-100.00,SE,141,6.0,11.0,-999,-99.99,,,-99.99,,2013-01-03 04:43:00,
2013-01-02 23:53:00,18.0,-99.9,-100.00,SE,136,6.0,13.0,-999,-99.99,,,-99.99,,2013-01-03 04:53:00,